Voltar ao catálogo

STARLINK-5428

AtivoComunicaçõesVLEO
NORAD 54800·PAYLOAD·🇺🇸 United States

Lançado Dec 17, 2022 de Cape Canaveral Space Force Station

Loading…

Próximas Passagens (próximas 24 horas)

TLE

AtualizadoSource: CelesTrak SupGP

Época: Sep 14, 2026, 21:00 UTC

1 54800C 22175AU  26257.87548611  .00043348  00000+0  13942-2 0  2575
2 54800  53.1571 258.0017 0001231  93.7470  69.9289 15.31673977    14

Acompanhe STARLINK-5428 em tempo real com AllMySat

Download on the App Store